Regional Weather Roundup
Issued by NWS Kansas City/Pleasant Hill, MO

Home | Current Version | Previous Version | Graphics & Text | Print | Product List | Glossary Off
Versions: 1 2 3 4 5 6 7 8 9 10 11 12 13 14 15 16 17 18 19 20 21 22 23 24 25 26 27 28 29 30 31 32 33 34 35 36 37 38 39 40 41 42 43 44 45 46 47 48 49 50

000
ASUS43 KEAX 280704
RWREAX

WEATHER ROUNDUP FOR EASTERN KANSAS AND NORTHWEST MISSOURI
NATIONAL WEATHER SERVICE KANSAS CITY/PLEASANT HILL MO
200 AM CDT MON JUL 28 2014

KSZ040-057-103>105-MOZ028-029-037-043-280800-
...KANSAS CITY METROPOLITAN AREA...

CITY           SKY/WX    TMP DP  RH WIND       PRES   REMARKS
K.C. INTL      PTCLDY    64  57  78 N6        30.15S
K.C. DOWNTOWN  CLEAR     68  59  73 N5        30.13S
LEES SUMMIT    CLEAR     67  57  70 N8        30.14S
OLATHE - IXD   CLEAR     62  57  83 N8        30.15F
OLATHE - OJC   CLEAR     69  57  65 N6        30.14S
LAWRENCE       CLEAR     63  58  83 NW5       30.15S

$$

MOZ001>008-011>017-020>025-030>033-038>040-044>046-053-054-280800-
...NORTHERN AND CENTRAL MISSOURI...

CITY           SKY/WX    TMP DP  RH WIND       PRES   REMARKS
ST. JOSEPH     CLEAR     63  58  83 N3        30.16R
MOSBY          SUNNY     64  57  77 CALM      30.13S
WHITEMAN AFB   CLEAR     66  49  55 N9        30.11S
CLINTON        CLEAR     64  59  82 CALM      30.12F
SEDALIA        CLEAR     64  58  80 NW7       30.11S
WARSAW         NOT AVBL
MARSHALL       CLEAR     64  61  88 NW6       30.12S
CHILLICOTHE      N/A     67  56  67 VRB3      30.13S
KIRKSVILLE     CLEAR     62  57  83 W8        30.09S

$$

MOZ041-047>049-056>058-063>065-088>090-097-280800-
...EASTERN AND SOUTHERN MISSOURI...

CITY           SKY/WX    TMP DP  RH WIND       PRES   REMARKS
ST. LOUIS INTL CLEAR     70  58  65 NW8       30.01S
SPIRIT OF STL  CLEAR     68  58  70 NW7       30.01S
COLUMBIA       CLEAR     65  58  78 NW9       30.08S
JEFFERSON CITY CLEAR     67  58  72 NW6       30.07S
HANNIBAL       CLEAR     66  55  68 NW7       30.05S
ROLLA          CLEAR     66  56  70 N7        30.06S
LEBANON        CLEAR     68  57  68 CALM      30.10F
OSAGE BEACH    CLEAR     68  55  64 N5        30.09S
SPRINGFIELD    CLEAR     67  58  72 N7        30.11R
BRANSON        CLEAR     70  57  64 NW7       30.11S
NEVADA         CLEAR     66  59  77 N6        30.14S
JOPLIN         CLEAR     66  61  84 N3        30.13S
WEST PLAINS    CLEAR     70  57  63 NW7       30.08S

$$

IAZ060-094-KSZ022-034>040-054-083-096-NEZ052-066-093-280800-
...KANSAS...SOUTHEAST NEBRASKA AND IOWA...

CITY           SKY/WX    TMP DP  RH WIND       PRES   REMARKS
TOPEKA         CLEAR     67  59  75 N5        30.17R
MANHATTAN      CLEAR     66  57  72 N3        30.18R
EMPORIA        CLEAR     66  57  72 CALM      30.17S
CHANUTE        CLEAR     67  57  70 N5        30.15S
WICHITA        CLEAR     73  55  53 NE7       30.18R
OMAHA          CLEAR     61  55  81 NW5       30.20S
LINCOLN        CLEAR     64  57  78 N9        30.23S
LAMONI         CLEAR     59  56  89 W7        30.13S
DES MOINES     CLEAR     64  57  78 NW12      30.11R

$$




USA.gov is the U.S. government's official web portal to all federal, state and local government web resources and services.